Weather History for Hamilton Airport, ON

Change the Weather History Date:

Monday, October 22, 2012

  Actual Average Record
Temperature  
Mean Temperature 52 °F -  
Max Temperature 66 °F 48 °F 73 °F (2007)
Min Temperature 37 °F 34 °F 26 °F (1997)
Degree Days  
Heating Degree Days 14    
Growing Degree Days 2 (Base 50)    
Moisture  
Dew Point 45 °F    
Average Humidity 80    
Maximum Humidity 100    
Minimum Humidity 43    
Precipitation  
Precipitation 0.16 in 0.10 in - ()
Sea Level Pressure  
Sea Level Pressure 30.11 in    
Wind  
Wind Speed 5 mph ()    
Max Wind Speed 10 mph    
Max Gust Speed -    
Visibility 14.0 miles    
Events Fog , Rain , Thunderstorm    
Averages and records for this station are not official NWS values.
T = Trace of Precipitation, MM = Missing Value Source: Averaged Metar Reports

Daily Weather History Graph

Daily Weather History Graph

Search for Another Location

Airport:

Trip Planner

Search our weather history database for the weather conditions in past years. The results will help you decide how hot, cold, wet, or windy it might be!

Date:

Astronomy

Oct. 22, 2012 Rise Set
Actual Time 7:42 AM EDT 6:25 PM EDT
Civil Twilight 7:13 AM EDT 6:54 PM EDT
Nautical Twilight 6:40 AM EDT 7:27 PM EDT
Astronomical Twilight 6:07 AM EDT 8:00 PM EDT
Moon 2:42 PM EDT (10/22) 12:16 AM EDT (10/22)
Length of Visible Light 11h 40m
Length of Day
10h 42m
First Quarter, 56% of the Moon is Illuminated
Oct 22
First Quarter
Oct 29
Full
Nov 6
Last Quarter
Nov 13
New
Nov 20
First Quarter

Hourly Weather History & Observations

Time (EDT) Temp. Windchill Dew Point Humidity Pressure Visibility Wind Dir Wind Speed Gust Speed Precip Events Conditions
12:00 AM 44.6 °F 42.2 °F 42.8 °F 93% 30.11 in 15.0 mi West 4.6 mph - N/A   Partly Cloudy
1:00 AM 42.8 °F 38.6 °F 42.8 °F 100% 30.11 in 15.0 mi WSW 6.9 mph - N/A   Partly Cloudy
2:00 AM 41 °F - 41 °F 98% 30.11 in 15 mi SW 5.8 mph - -   Clear
2:00 AM 41.0 °F 37.1 °F 41.0 °F 100% 30.11 in 15.0 mi SW 5.8 mph - N/A   Partly Cloudy
4:00 AM 39.2 °F 34.2 °F 39.2 °F 100% 30.11 in 15.0 mi WSW 6.9 mph - N/A   Partly Cloudy
5:00 AM 39.2 °F 35.0 °F 37.4 °F 93% 30.12 in 15.0 mi WSW 5.8 mph - N/A   Partly Cloudy
6:00 AM 39.2 °F 34.2 °F 39.2 °F 100% 30.13 in 15.0 mi WSW 6.9 mph - N/A   Partly Cloudy
7:00 AM 39.2 °F 35.0 °F 37.4 °F 93% 30.14 in 15.0 mi SW 5.8 mph - N/A   Partly Cloudy
8:00 AM 37 °F - 37 °F 99% 30.15 in 7 mi SW 5.8 mph - -   Scattered Clouds
8:00 AM 37.4 °F 32.8 °F 37.4 °F 100% 30.15 in 7.0 mi SW 5.8 mph - N/A Fog Shallow Fog
9:00 AM 44.6 °F 42.2 °F 42.8 °F 93% 30.15 in 10.0 mi WSW 4.6 mph - N/A   Partly Cloudy
10:00 AM 50.0 °F - 46.4 °F 87% 30.15 in 10.0 mi WSW 5.8 mph - N/A   Clear
11:00 AM 55.4 °F - 51.8 °F 88% 30.15 in 15.0 mi SW 8.1 mph - N/A   Partly Cloudy
12:00 PM 60.8 °F - 48.2 °F 63% 30.14 in 15.0 mi SW 6.9 mph - N/A   Partly Cloudy
1:00 PM 62.6 °F - 48.2 °F 59% 30.12 in 15.0 mi SSW 9.2 mph - N/A   Partly Cloudy
2:00 PM 64 °F - 47 °F 43% 30.10 in 15 mi SSW 5.8 mph - -  
2:00 PM 64.4 °F - 46.4 °F 52% 30.10 in 15.0 mi SW 6.9 mph - N/A   Partly Cloudy
3:00 PM 66.2 °F - 50.0 °F 56% 30.08 in 15.0 mi South 6.9 mph - N/A   Partly Cloudy
4:00 PM 64.4 °F - 50.0 °F 59% 30.07 in 15.0 mi South 10.4 mph - N/A   Partly Cloudy
5:00 PM 64.4 °F - 51.8 °F 64% 30.08 in 15.0 mi South 6.9 mph - N/A   Mostly Cloudy
6:00 PM 59.0 °F - 48.2 °F 67% 30.08 in 50.0 mi South 6.9 mph - N/A   Mostly Cloudy
7:00 PM 55.4 °F - 48.2 °F 77% 30.09 in 15.0 mi South 5.8 mph - N/A   Mostly Cloudy
8:00 PM 55 °F - 47 °F 68% 30.08 in 15 mi South 5.8 mph - -   Overcast
8:00 PM 55.4 °F - 48.2 °F 77% 30.08 in 15.0 mi South 5.8 mph - N/A   Overcast
9:00 PM 55.4 °F - 46.4 °F 72% 30.06 in 15.0 mi SE 3.5 mph - N/A   Mostly Cloudy
10:00 PM 55.4 °F - 46.4 °F 72% 30.06 in 15.0 mi ESE 3.5 mph - N/A   Overcast
11:00 PM 53.6 °F - 50.0 °F 88% 30.06 in 15.0 mi ESE 3.5 mph - N/A Rain , Thunderstorm Light Thunderstorms and Rain